RH
100 98 100 96 98 89 100 100 100 100 100 93 90 96 100 86 91 82 72 86 87 99 83 90 100 100 100 100 99 87 82 100 89
100 100 98 71 100 100 98 100 100 100 100 100 100 100 100 90 95 82 85 81 90 83 88 100 85 99 100 99 94 97 94 83 81
57 85 99 100 88 100 98 92 98 100 98 100 100 98 100 96 95 86 89 81 75 79 78 88 100 94 87 92 94 97 88 100 84
29 39 57 82 100 100 97 87 99 100 100 94 100 100 100 100 100 100 99 89 78 94 88 72 90 100 100 100 97 96 100 100 98
24 30 43 54 61 100 100 99 97 100 99 100 97 90 100 100 100 100 100 100 92 87 98 100 76 84 100 100 100 100 100 100 100
22 27 34 63 63 81 100 100 97 98 88 92 82 91 90 90 98 90 90 100 100 94 92 100 100 90 88 93 100 100 100 100 100
36 31 25 34 55 61 65 94 87 84 88 93 92 96 80 74 74 95 92 91 100 100 100 100 100 100 87 86 90 96 96 100 100
37 40 44 33 30 42 59 66 66 93 94 93 100 98 95 78 71 63 90 100 98 100 100 100 100 100 100 94 85 98 100 99 100
36 40 45 65 61 57 32 64 78 78 73 88 100 100 100 99 77 79 86 99 99 90 100 100 100 100 100 100 100 88 80 85 86
26 39 44 49 100 96 56 46 79 77 100 100 100 100 100 100 100 100 98 83 98 92 100 100 100 100 100 100 100 100 100 93 73
30 31 43 49 59 100 100 83 82 100 100 100 100 100 100 100 100 100 100 100 100 94 92 93 100 99 100 93 95 100 100 100 100
30 32 37 51 55 64 100 100 100 100 100 100 90 99 100 100 100 100 100 100 100 100 100 90 96 100 100 100 84 63 75 100 100
36 36 38 41 55 62 68 100 100 100 100 100 100 100 100 100 100 100 100 100 100 100 100 100 100 100 100 100 100 94 62 98 98
42 42 39 42 45 60 63 74 100 100 100 100 96 91 94 100 100 100 100 100 84 64 93 99 100 100 100 100 100 100 98 97 100
49 49 51 55 47 43 58 67 76 100 100 100 100 88 98 100 100 100 100 100 100 98 86 98 96 100 100 99 92 100 100 100 100
75 59 56 59 64 64 46 52 68 74 100 100 100 100 100 84 78 94 100 100 100 100 100 84 92 87 87 84 82 87 100 100 100
100 95 72 58 62 68 69 54 50 70 88 96 100 100 100 100 90 94 100 100 100 100 100 100 100 79 93 89 93 87 100 100 100
88 83 94 86 70 60 63 64 59 53 63 80 85 99 100 100 100 100 100 100 100 100 100 100 100 100 100 100 98 98 100 100 100
83 84 85 90 90 74 63 58 60 58 50 58 70 79 84 100 100 100 100 100 96 100 100 100 100 100 100 93 93 100 100 100 100
80 95 96 99 92 86 84 68 58 54 54 50 51 59 72 76 78 95 100 100 100 100 100 100 100 100 100 100 89 84 76 100 100
Wind_Speed
67 60 62 67 57 55 52 51 49 47 47 45 43 43 43 45 45 43 41 41 41 35 33 38 42 43 46 43 44 44 47 42 42
83 79 74 69 69 61 58 56 51 48 49 49 46 44 44 47 47 49 48 45 47 45 43 41 42 43 46 50 48 43 46 45 40
89 92 85 79 75 71 65 63 57 52 51 52 49 46 47 45 47 49 50 51 49 51 50 48 45 45 46 49 46 48 44 46 46
88 86 89 88 86 81 76 67 66 67 62 58 52 47 45 51 48 48 49 51 51 50 51 53 52 50 53 51 50 50 50 53 48
87 87 86 86 88 80 88 83 80 76 69 68 62 56 55 53 53 53 52 51 50 53 53 53 56 54 53 58 54 56 55 56 61
82 84 89 87 88 87 80 85 88 82 74 69 66 63 59 56 51 56 57 56 53 56 55 53 52 55 54 54 57 60 59 62 63
86 83 84 88 89 88 88 83 81 81 83 82 76 73 69 65 64 59 56 59 57 56 59 59 53 53 55 57 59 57 58 59 59
91 87 83 82 83 88 84 89 88 79 81 86 84 78 74 72 69 69 64 58 59 58 61 62 59 56 55 56 58 59 58 56 60
95 92 87 81 77 75 83 79 82 84 85 82 82 81 79 76 75 72 72 67 61 62 62 64 64 63 60 57 58 58 55 55 54
90 96 93 88 82 80 78 77 76 78 78 76 78 81 80 78 78 71 68 75 72 68 64 69 71 69 65 61 59 60 61 59 55
84 92 97 95 89 83 80 81 77 75 79 79 76 77 80 68 67 74 76 72 73 74 73 67 73 72 73 71 65 59 61 63 63
78 85 94 98 97 92 89 81 79 77 74 74 78 83 88 84 82 76 77 78 79 80 76 73 70 72 74 76 76 70 67 63 60
69 80 88 97 101 99 96 94 86 80 75 70 66 83 86 87 87 83 71 86 87 86 80 79 77 76 73 73 73 77 74 71 67
60 69 79 88 97 104 103 100 98 92 83 86 73 80 89 94 89 85 86 79 91 89 88 86 84 83 81 79 76 77 77 74 73
49 59 70 80 89 97 105 107 104 103 97 100 98 88 90 92 93 96 93 91 92 96 92 88 88 89 88 86 84 81 79 79 77
47 50 58 73 84 90 96 104 111 108 109 100 106 101 100 100 97 98 96 101 99 96 93 96 91 90 91 90 86 84 84 82 80
50 52 54 59 71 87 91 94 102 114 113 116 112 103 104 102 99 99 102 104 103 101 98 94 97 92 92 91 89 89 87 85 84
56 57 58 59 61 70 85 94 97 104 115 122 121 122 113 103 106 105 106 105 106 106 103 101 97 98 97 94 92 89 87 85 83
60 60 62 63 66 70 75 86 96 99 107 117 126 128 126 127 118 111 111 109 109 110 111 109 102 102 101 101 98 94 92 91 85
64 67 68 69 71 74 77 80 85 99 105 108 116 125 132 131 129 130 122 112 112 111 114 113 114 113 110 104 104 98 95 98 95
Wind_Direction
236 234 237 237 234 235 237 236 237 239 242 248 249 248 248 246 246 248 247 246 237 235 237 235 232 233 228 231 230 231 233 234 236
235 238 237 238 240 239 238 234 239 238 240 245 246 243 247 245 247 248 249 244 241 238 235 237 239 232 236 237 233 234 234 238 237
239 239 240 241 237 239 238 237 239 240 239 241 245 246 245 247 246 246 244 244 244 242 241 242 239 242 240 238 239 240 238 237 241
239 239 240 240 242 243 239 237 244 246 247 240 237 241 245 246 246 248 247 244 244 242 242 241 240 237 238 239 239 238 235 235 237
239 239 240 239 239 243 247 243 242 249 242 240 240 245 250 247 247 246 248 250 246 243 244 242 241 238 237 236 235 235 237 239 239
238 238 238 238 236 239 243 245 248 244 239 239 243 244 247 247 248 245 249 248 246 245 242 243 243 241 241 243 241 241 241 242 245
238 238 239 238 239 239 239 243 245 248 244 247 249 250 250 248 250 249 245 245 247 245 242 240 238 242 241 244 246 246 247 247 248
238 236 238 240 240 239 242 242 242 243 246 249 249 249 251 253 251 248 246 245 242 243 240 240 238 236 243 244 246 248 247 246 248
235 236 235 237 240 242 240 239 241 243 243 246 247 247 249 252 249 245 247 245 243 239 239 239 240 239 235 241 247 247 248 250 248
236 235 234 234 232 239 240 240 241 241 241 242 244 245 243 246 247 246 247 247 246 244 238 240 241 239 236 237 239 248 251 247 252
236 235 234 233 232 229 236 241 240 239 240 241 240 240 239 234 238 243 245 243 243 244 243 240 243 242 240 237 234 241 251 253 251
237 235 234 233 233 230 227 231 238 235 234 239 247 243 239 238 238 241 242 239 243 240 241 243 239 242 244 244 241 237 237 242 248
239 237 235 234 232 232 229 226 230 234 234 231 229 234 235 236 237 239 236 243 243 239 237 238 239 239 240 243 247 246 240 243 238
239 237 237 235 234 233 231 229 226 230 227 224 225 224 230 234 235 232 235 236 243 243 240 238 237 238 241 242 242 245 243 241 243
242 239 237 236 237 235 233 232 230 227 230 228 232 234 230 234 233 235 239 235 240 245 243 241 240 238 240 242 242 242 243 244 244
253 244 240 237 236 237 237 234 233 231 226 227 233 232 236 240 237 237 237 235 236 240 243 247 244 241 242 243 243 243 244 243 244
258 254 246 242 238 236 236 236 235 233 231 231 230 231 234 236 237 237 233 234 236 238 240 243 246 247 243 244 244 244 245 244 246
254 254 253 247 243 239 236 236 236 234 234 233 233 235 232 230 231 231 233 234 237 240 239 240 243 244 240 241 245 244 244 245 247
257 257 256 254 250 245 240 238 236 237 235 233 234 234 234 236 233 233 233 236 238 237 239 239 238 242 244 242 243 241 242 244 243
260 257 255 254 253 250 246 243 241 239 237 236 235 235 234 235 236 238 233 233 231 234 235 238 239 241 242 244 246 242 244 244 244